Location: Bailleul
(50.3375°N, 2.8513°E)
Time: 21:47:40
(UTC+00:00)

Cosmos 2016 Rocket - Pass Details

Date: 29 October 2021
Orbit: 947 x 1000 km, 83.0° (Epoch: 02 December)

Event Time Altitude Azimuth Distance (km) Brightness Sun altitude
Rises 04:11:28 0° 359° (N) 3,630 7.1 -23.2°
Reaches altitude 10° 04:15:08 10° 21° (NNE) 2,681 6.6 -22.6°
Maximum altitude 04:18:43 16° 57° (ENE) 2,281 6.7 -22.1°
Drops below altitude 10° 04:22:18 10° 93° (E) 2,681 7.4 -21.5°
Sets 04:25:57 0° 115° (ESE) 3,629 8.0 -20.9°
